#timestamp,LO_Frequency,Hit,StdDev 
1542265215.4,286046999.8,N
1542265235.3,286047001.0,N
1542265255.1,286047001.0,N
1542265256.0,286047001.0,N
1542265275.8,286046998.2,Y
1542265295.7,286046999.0,P
1542265315.5,286046996.5,P
1542265335.3,286046999.1,N
1542265355.2,286046998.3,N
1542265375.0,286046996.8,N
1542265375.9,286046996.8,N
1542265395.8,286046998.3,N
1542265415.6,286046998.8,N
1542265435.4,286046998.1,N
1542265455.3,286046999.3,N
1542265475.1,286046998.6,N
1542265495.8,286047000.1,N
1542265515.7,286047000.0,N
1542265535.5,286047000.9,N
1542265555.4,286046999.9,N
1542265575.2,286047000.4,N
1542265595.0,286047000.0,N
1542265595.9,286047000.0,N
1542265615.8,286047000.4,N
1542265635.6,286046999.8,N
1542265655.5,286047001.1,N
1542265675.3,286047001.2,N
1542265695.1,286046998.5,N
1542265715.9,286047001.2,N
1542265735.7,286047000.8,N
1542265755.5,286046998.3,N
1542265775.4,286046998.8,N
1542265795.2,286047000.9,N
1542265815.1,286047001.0,N
1542265816.0,286047001.0,N
1542265835.8,286047000.7,N
1542265855.6,286047001.1,N
1542265875.5,286047001.2,N
1542265895.3,286047001.0,N
1542265915.1,286047000.7,N
1542265935.9,286046998.1,N
1542265955.7,286047000.9,N
1542265975.6,286047000.9,N
1542265995.4,286047000.4,N
1542266015.2,286047000.6,N
1542266035.1,286047001.1,N
1542266036.0,286047001.1,N
1542266055.8,286047001.0,N
1542266075.7,286047000.3,N
1542266095.5,286047001.1,N
1542266115.3,286047000.4,N
1542266135.2,286046998.1,N
1542266155.9,286047000.4,N
1542266175.7,286046998.2,N
1542266195.6,286046998.1,N
1542266215.4,286047000.0,N
1542266235.3,286047000.0,N
1542266255.1,286047000.6,N
1542266256.0,286047000.6,N
1542266275.9,286047002.8,N
1542266295.7,286047000.1,N
1542266315.5,286047000.0,N
1542266335.4,286047000.4,N
1542266355.2,286046999.8,N
1542266375.0,286047000.1,N
1542266375.9,286047000.1,N
1542266395.8,286047000.9,N
1542266415.6,286047000.9,N
1542266435.5,286047000.6,N
1542266455.3,286047000.0,N
1542266475.1,286047000.3,N
1542266495.9,286047000.5,N
1542266515.7,286047001.1,N
1542266535.5,286047000.7,N
1542266555.4,286047000.8,N
1542266575.2,286047001.0,N
1542266595.1,286046998.4,N
1542266596.0,286046998.4,N
1542266615.8,286046999.0,N
1542266635.6,286046999.0,N
1542266655.5,286046999.3,N
1542266675.3,286046998.4,N
1542266695.1,286047001.1,N
1542266715.9,286047000.5,N
1542266735.7,286047000.6,N
1542266755.6,286047000.7,N
1542266775.4,286047001.2,N
1542266795.2,286047000.2,N
1542266815.1,286047000.1,N
1542266816.0,286047000.1,N
1542266835.8,286047002.8,Y
1542266855.7,286047000.3,P
1542266875.5,286047000.5,P
1542266895.3,286046999.9,N
1542266915.5,286047002.7,Y
1542266935.3,286047002.7,P
1542266955.2,286046999.9,N
1542266975.0,286047002.3,N
1542266975.9,286047002.3,N
1542266995.8,286046999.7,N
1542267015.6,286047000.0,N
1542267035.4,286047001.0,N
1542267055.3,286047000.9,N
1542267075.1,286046999.9,N
1542267095.8,286047000.4,N
1542267115.7,286047000.6,N
1542267135.8,286047002.2,N
1542267155.6,286046999.9,N
1542267175.4,286047000.2,N
1542267195.1,286047000.4,N
1542267196.0,286047000.4,N
1542267215.8,286047000.2,N
1542267235.7,286046999.8,N
1542267255.5,286047002.7,N
1542267275.3,286047004.0,Y
1542267295.2,286047001.3,P
1542267315.0,286047002.5,P
1542267315.9,286047002.5,P
1542267335.8,286047002.4,Y
1542267355.6,286046998.4,P
1542267375.4,286046999.2,N
1542267395.3,286046996.6,N
1542267415.1,286046996.6,N
1542267416.0,286046996.6,N
1542267435.8,286046997.4,N
1542267455.7,286046997.6,N
1542267475.5,286046997.1,N
1542267495.3,286046997.5,N
1542267515.2,286046999.5,N
1542267535.0,286046998.6,N
1542267535.9,286046998.6,N
1542267555.8,286046998.6,N
1542267575.6,286046999.5,N
1542267595.4,286046999.6,N
1542267615.3,286046997.1,N
1542267635.1,286046997.3,N
1542267655.8,286046999.0,N
1542267675.7,286046996.6,N
1542267695.5,286046997.0,N
1542267715.4,286046997.4,N
1542267735.2,286046997.7,N
1542267755.0,286046997.5,N
1542267755.9,286046997.5,N
1542267775.8,286046997.7,N
1542267795.6,286046996.7,N
1542267815.4,286046997.7,N
1542267835.3,286046997.0,N
1542267855.1,286046997.3,N
1542267875.9,286046997.2,N
1542267895.7,286046999.6,N
1542267915.5,286046996.5,Y
1542267935.4,286046998.7,P
1542267955.2,286046998.7,N
1542267975.0,286046998.5,P
1542267976.0,286046998.5,Y
1542267995.8,286047002.0,P
1542268015.6,286047003.9,N
1542268035.5,286047001.7,N
1542268055.3,286047004.4,N
1542268075.1,286047002.5,N
1542268095.9,286047001.3,N
1542268115.7,286047002.2,N
1542268135.6,286047002.0,N
1542268155.4,286047001.8,N
1542268175.2,286047001.3,N
1542268195.1,286047001.9,N
1542268196.0,286047001.9,N
1542268215.8,286047002.5,N
1542268235.7,286047004.2,Y
1542268255.5,286046999.8,P
1542268275.3,286047000.3,N
1542268295.2,286047000.9,N
1542268315.9,286047000.1,N
1542268335.7,286047002.3,N
1542268355.6,286046999.9,N
1542268375.4,286047000.9,N
1542268395.3,286047000.6,N
1542268415.1,286047000.9,N
1542268416.0,286047000.9,N
1542268435.8,286047000.3,N
1542268455.7,286047000.8,N
1542268475.5,286047000.7,N
1542268495.3,286047000.2,N
1542268515.2,286046999.8,N
1542268535.0,286047002.7,Y
1542268535.9,286047002.7,P
1542268555.8,286047002.7,N
1542268575.6,286047002.7,N
1542268595.4,286047002.6,N
1542268615.3,286047000.2,N
1542268635.1,286047000.5,N
1542268655.9,286047001.1,N
1542268675.7,286047001.1,N
1542268695.5,286047001.2,N
1542268715.4,286047000.6,N
1542268735.2,286047001.0,N
1542268755.0,286047000.2,N
1542268756.0,286047000.2,N
1542268775.8,286047000.7,N
1542268795.6,286046999.5,N
